Location: Kernascl�den
(48.0062°N, 3.3198°W)
Time: 22:49:28
(UTC+00:00)

Cosmos 1777 Rocket - Pass Details

Date: 21 January 2021
Orbit: 758 x 776 km, 74.0° (Epoch: 04 March)

Event Time Altitude Azimuth Distance (km) Brightness Sun altitude
Rises 18:16:08 0° 203° (SSW) 3,226 7.8 -13.1°
Reaches altitude 10° 18:18:30 10° 205° (SSW) 2,306 7.0 -13.5°
Maximum altitude 18:23:45 82° 292° (WNW) 787 4.1 -14.4°
Drops below altitude 10° 18:29:04 10° 21° (NNE) 2,333 6.2 -15.2°
Enters shadow 18:30:01 - 22° (NNE) 2,702 6.5 -15.4°
